Theta_e
327 325 323 322 322 322 322 322 321 322 321 321 319 318 318 317 312 307 305 304 304 306 311 313 315 315 312
324 324 323 322 320 320 320 319 319 319 319 319 319 318 318 316 311 306 304 304 304 306 309 309 312 314 313
325 322 321 320 318 317 317 317 317 317 316 316 316 316 316 313 309 305 303 303 304 304 307 307 309 312 313
324 322 319 317 317 315 314 316 315 314 315 314 312 313 313 310 306 305 303 303 303 304 306 306 308 311 313
324 322 317 313 313 315 314 314 313 313 313 313 312 311 309 307 305 303 302 303 303 304 306 306 308 310 311
324 323 320 317 315 315 314 313 310 312 311 310 311 309 309 308 306 303 303 303 302 303 305 305 307 309 311
324 323 322 320 317 315 315 315 315 316 311 309 307 306 307 309 306 302 303 304 302 302 303 304 306 307 309
324 324 324 322 320 320 318 315 314 314 311 303 307 305 306 307 304 303 302 302 301 301 303 304 306 306 307
323 323 323 323 323 321 315 311 307 303 305 307 303 301 300 300 304 302 301 300 300 301 302 303 305 306 307
314 315 316 317 319 318 316 312 310 302 303 302 302 299 296 297 299 298 299 299 300 301 302 303 304 304 304
304 305 307 308 309 310 312 311 311 310 310 305 302 297 299 293 296 296 297 298 299 300 301 302 302 302 303
300 301 301 302 302 303 304 306 308 307 307 304 302 299 298 291 291 292 294 296 298 299 300 300 300 300 301
296 297 298 298 298 299 299 300 300 302 301 301 301 299 297 294 290 291 291 293 296 298 298 299 299 298 298
294 294 294 296 297 297 296 296 294 294 296 296 295 297 295 295 294 291 291 290 291 294 296 297 298 298 298
291 291 292 293 293 293 293 292 291 292 291 291 292 292 292 291 291 291 290 290 290 292 292 293 294 295 296
288 289 290 291 291 292 292 291 291 292 289 288 288 290 289 290 290 289 289 288 289 290 290 289 289 290 291
286 286 288 290 291 291 292 290 291 291 289 287 287 289 287 287 286 288 288 287 286 286 287 288 288 288 288
Wind_Speed
13 21 21 27 30 30 28 28 32 30 31 31 30 29 26 24 23 21 21 20 19 17 16 17 14 14 12
24 23 24 26 27 28 31 31 33 30 28 33 33 32 29 27 25 24 22 20 19 17 18 19 19 17 16
26 22 24 23 24 26 28 31 33 29 28 28 34 32 31 29 26 24 22 21 20 19 19 20 20 20 19
24 18 20 24 25 22 24 32 33 31 33 34 33 33 34 32 28 27 22 20 21 19 20 20 20 21 18
23 22 20 17 25 31 31 24 31 32 36 40 39 39 38 34 32 28 23 19 22 20 21 20 20 18 22
27 21 28 26 24 27 23 16 7 31 36 39 42 43 43 40 35 31 24 20 22 21 21 21 21 22 21
29 31 26 30 27 27 29 27 28 23 31 30 37 41 43 41 38 33 27 25 25 24 22 20 22 24 22
33 34 40 32 37 40 39 41 33 32 32 15 34 37 41 45 42 34 30 28 27 26 24 21 20 21 22
41 42 38 37 38 37 26 20 15 18 36 24 21 24 30 35 41 36 33 31 28 27 25 23 20 20 20
19 22 26 33 37 32 30 30 22 10 31 28 24 21 7 26 34 34 33 32 29 27 25 24 23 22 21
21 23 25 28 30 31 31 34 31 29 21 39 26 24 13 7 26 36 35 35 33 31 28 27 25 25 24
19 21 23 25 26 27 29 33 32 35 31 28 18 30 22 10 7 27 33 34 37 34 31 28 26 24 23
18 20 24 27 30 30 31 31 35 39 41 29 42 32 28 15 10 19 27 30 36 37 34 34 32 26 22
18 21 26 26 26 26 28 30 27 27 27 27 37 39 28 26 26 27 24 17 32 29 33 31 29 30 29
22 23 22 22 23 26 26 22 19 18 17 20 20 22 19 18 14 25 27 20 30 33 31 28 28 29 28
21 21 22 23 24 25 26 22 21 20 17 21 18 17 7 10 13 19 20 23 30 33 28 20 21 22 22
22 23 24 23 22 22 22 22 22 22 19 22 21 14 6 3 6 20 18 21 24 23 24 20 18 25 24
Wind_Direction
236 233 228 230 229 231 235 229 235 236 234 234 238 241 245 252 255 260 267 269 273 270 252 246 244 250 252
235 226 227 234 240 237 236 235 238 241 239 238 239 241 245 251 256 257 256 261 268 261 247 247 241 236 238
224 222 234 236 234 242 238 239 242 240 243 243 241 240 246 250 249 253 253 255 262 260 240 246 242 234 237
229 227 225 236 231 218 228 232 238 238 239 244 245 241 245 247 247 246 244 252 256 258 241 241 241 236 234
225 219 201 197 206 221 226 227 237 236 240 245 245 243 242 240 242 242 241 243 251 250 241 240 232 239 226
227 223 219 216 211 215 218 204 234 238 232 244 243 243 245 244 243 242 233 239 238 240 235 237 234 232 225
229 223 226 219 213 211 215 221 233 235 219 231 231 236 242 245 243 237 236 232 229 232 230 231 232 228 228
236 235 236 233 224 230 230 227 238 229 219 209 232 233 238 239 237 237 234 227 224 221 216 219 224 229 225
253 250 255 253 249 237 220 201 218 224 218 220 223 220 224 226 230 228 223 224 222 215 210 214 214 215 213
295 285 280 275 266 255 231 215 220 212 222 206 217 197 197 224 221 218 214 215 210 210 211 211 210 206 203
321 311 302 292 287 283 273 239 234 239 250 212 211 197 210 172 195 208 209 205 204 202 205 211 209 209 203
323 317 316 316 311 304 293 273 258 253 257 226 216 200 196 162 184 187 195 199 201 199 198 206 210 208 212
327 317 314 314 313 309 303 293 280 271 269 252 225 215 204 187 161 177 166 190 197 196 198 200 196 197 200
320 314 313 308 306 307 298 290 276 270 260 233 224 224 200 202 175 165 174 168 188 194 200 199 200 205 207
329 322 313 307 299 301 289 267 253 262 241 226 219 211 208 176 157 165 162 151 175 184 189 191 203 205 206
313 308 305 304 301 295 285 264 256 249 227 210 184 155 163 184 165 154 155 152 171 183 182 172 189 199 202
314 309 305 299 297 289 279 265 262 252 224 205 193 189 152 171 198 174 159 157 163 171 177 182 179 196 199